Content
SEND FEEDBACK

Daily
Averages
Monthly
Summary
United States of America

CHICAGO, ILLINOIS


Home > North America > United States > Illinois
Elevation: 205 meters     Latitude: 41 59N     Longitude: 087 54W

WEATHER
 
SELECT A DAY
Number of Records: 195,075;   Date Range: 7/8/95 - 9/16/14
 
SHARE

PRINT THIS DATA

[ ← Previous Day ]
WEATHER ALMANAC - 6 MAY, 2013
[ Next Day → ]
[ °F ]   °C
Weather ElementAverageHighLow
Temperature14.1 °C19.4 °C (12:52 pm)10 °C (11:52 pm)
Dewpoint3.7 °C5.6 °C (11:52 am)1.7 °C (5:52 pm)
Humidity50.8 %66 % (1:52 am)35 % (5:52 pm)
Barometer1017.3 hPa1018.3 hPa (9:52 am)1016.3 hPa (3:52 am)
Wind Speed9 km/h22.2 km/h (2:52 pm)
Weather ElementAverage
Visibility16.1 km
Wind DirectionENE (84.3 °)

Weather ElementTotal
Precipitation---
Heating Degree Days3.7 (Base 18.3)
Growing Degree Days4.7 (Base 10)
Averaged from 23 records on 6 May, 2013
WEATHER CONDITIONS BREAKOUT
WIND DIRECTION BREAKOUT
WEATHER BY HOUR - 6 MAY, 2013
[ °F ]   °C
Local TimeTemperatureDewpointHumidityBarometerVisibilityWind DirectionWind SpeedGust SpeedPrecipitationEventsConditions
1:52 AM10.6 °C4.4 °C66 %1016.9 hPa16.1 kmCalmOvercast
2:52 AM11.1 °C3.9 °C61 %1016.6 hPa16.1 kmNorth (360°)5.6 km/hOvercast
3:52 AM11.1 °C4.4 °C63 %1016.3 hPa16.1 kmNorth (360°)5.6 km/hOvercast
4:52 AM11.7 °C3.9 °C59 %1016.6 hPa16.1 kmCalmOvercast
5:52 AM11.1 °C4.4 °C63 %1016.9 hPa16.1 kmNorth (360°)5.6 km/hOvercast
6:52 AM11.7 °C5 °C64 %1017.6 hPa16.1 kmNNW (340°)5.6 km/hOvercast
7:52 AM12.2 °C4.4 °C59 %1017.9 hPa16.1 kmNNE (30°)11.1 km/hOvercast
8:52 AM13.9 °C4.4 °C53 %1017.9 hPa16.1 kmNE (40°)9.3 km/hMostly Cloudy
9:52 AM15 °C3.3 °C46 %1018.3 hPa16.1 kmNNE (30°)13 km/hOvercast
10:52 AM16.1 °C4.4 °C46 %1017.9 hPa16.1 kmNE (50°)13 km/hMostly Cloudy
11:52 AM18.3 °C5.6 °C43 %1017.6 hPa16.1 kmNE (50°)11.1 km/hClear
12:52 PM19.4 °C5 °C39 %1016.9 hPa16.1 kmNE (40°)18.5 km/hClear
1:52 PM18.3 °C5.6 °C43 %1017.3 hPa16.1 kmENE (60°)14.8 km/hClear
2:52 PM17.8 °C4.4 °C41 %1016.9 hPa16.1 kmNE (40°)22.2 km/hClear
3:52 PM18.3 °C3.3 °C37 %1016.6 hPa16.1 kmNE (40°)13 km/hClear
4:52 PM18.3 °C2.8 °C36 %1016.3 hPa16.1 kmENE (60°)14.8 km/hClear
5:52 PM17.2 °C1.7 °C35 %1016.3 hPa16.1 kmNE (50°)16.7 km/hClear
6:52 PM14.4 °C1.7 °C42 %1016.6 hPa16.1 kmNNE (20°)13 km/hClear
7:52 PM12.8 °C2.2 °C49 %1016.9 hPa16.1 kmVariable7.4 km/hClear
8:52 PM12.2 °C2.2 °C51 %1017.3 hPa16.1 kmNorth (10°)7.4 km/hClear
9:52 PM12.2 °C2.2 °C51 %1017.6 hPa16.1 kmCalmClear
10:52 PM10.6 °C2.2 °C56 %1017.3 hPa16.1 kmCalmClear
11:52 PM10 °C3.9 °C66 %1017.3 hPa16.1 kmCalmClear
Hourly data recorded from KPWK, located 0 kilometers away from Chicago, Illinois







STORIES FROM OUR PARTNERS